Flag for Niger Weather past 2 weeks in Niamey, Niger

Now
108 °F

Passing clouds.


Feels Like: 105 °F
Forecast: 87 / 110 °F
Wind: 6 mph from South

Location: Niamey-Aero

Current Time: May 27, 2015 at 5:46:53 PM

Latest Report: May 27, 2015 at 5:00 PM


Visibility: N/A

Pressure: 29.74 "Hg

Humidity: 15%

Dew point: 50 °F

Location of NiameyLocation

Historic Weather in Niamey — Graph

°F

Niamey temperature yesterday

Maximum temperature yesterday: 111 °F (at 2:00 PM)
Minimum temperature yesterday: 90 °F (at 5:00 AM)
Average temperature yesterday: 100 °F

Past Weeks' High & Low Weather Summary

 TemperatureHumidityPressure
High111 °F (May 18, 3:00 PM)59% (May 25, 8:00 AM)29.95 "Hg (May 25, 8:00 AM)
Low82 °F (May 24, 4:00 AM)4% (May 13, 6:00 PM)29.68 "Hg (May 18, 6:00 PM)
Average97 °F24%29.82 "Hg
* Reported May 12 4:00 PM — May 27 4:00 PM, Niamey, Weather by CustomWeather, © 2015

Note: Actual official high and low records may vary slightly from our data, if they occured in-between our weather recording intervals... More about our weather records

Advertising

Niamey weather history for previous 24 hours

 ConditionsComfort  
Time TempWeatherWind HumidityBarometerVisibility
4:00 PM
Wed, May 27
108 °FPassing clouds.5 mph15%29.74 "HgN/A
3:00 PM108 °FPassing clouds.7 mph15%29.74 "HgN/A
2:00 PM106 °FPassing clouds.13 mph19%29.77 "HgN/A
1:00 PM104 °FPassing clouds.12 mph21%29.80 "HgN/A
12:00 PM102 °FSunny.13 mph24%29.80 "Hg10 mi
11:00 AM99 °FClear.17 mph29%29.83 "Hg5 mi
10:00 AM95 °FClear.17 mph34%29.83 "Hg4 mi
9:00 AM91 °FClear.17 mph41%29.83 "Hg4 mi
8:00 AM88 °FPassing clouds.13 mph46%29.83 "HgN/A
7:00 AM88 °FSunny.10 mph46%29.80 "Hg10 mi
6:00 AM88 °FClear.9 mph46%29.77 "Hg5 mi
5:00 AM90 °FClear.7 mph43%29.77 "Hg5 mi
4:00 AM91 °FClear.9 mph41%29.77 "Hg5 mi
3:00 AM91 °FClear.9 mph41%29.77 "Hg5 mi
2:00 AM93 °FClear.10 mph34%29.77 "Hg5 mi
1:00 AM95 °FClear.7 mph25%29.74 "Hg5 mi
12:00 AM97 °FClear.7 mph18%29.77 "Hg5 mi
11:00 PM
Tue, May 26
99 °FClear.7 mph15%29.80 "Hg5 mi
10:00 PM100 °FClear.7 mph13%29.77 "Hg5 mi
9:00 PM102 °FClear.6 mph9%29.74 "Hg5 mi
8:00 PM104 °FClear.3 mph9%29.71 "Hg5 mi
7:00 PM108 °FSunny.2 mph7%29.68 "Hg10 mi
6:10 PM109 °FPassing clouds.8 mph7%29.68 "HgN/A
5:00 PM111 °FPassing clouds.12 mph5%29.68 "HgN/A
Weather by CustomWeather, © 2015

See weather overviewHow to use our weather pages